Météo par heure à Alimgulovo

Ce jour, 24 Octobre, Samedi

Heure Température Précipitation Vent Pression Humidité
00:00 -3°C° 0.6 mm 6 m/s 731 mmHg 96%
01:00 -3°C° 0.6 mm 6 m/s 730 mmHg 97%
02:00 -2°C° 0.7 mm 6 m/s 730 mmHg 96%
03:00 -2°C° 0.7 mm 6 m/s 729 mmHg 96%
04:00 -1°C° 0.7 mm 6 m/s 729 mmHg 96%
05:00 -1°C° 0.5 mm 6 m/s 728 mmHg 96%
06:00 +1°C° 0.5 mm 6 m/s 728 mmHg 96%
07:00 +2°C° 0.5 mm 6 m/s 727 mmHg 97%
08:00 +2°C° 0.5 mm 6 m/s 727 mmHg 96%
09:00 +2°C° 0.5 mm 6 m/s 726 mmHg 95%
10:00 +2°C° 0.5 mm 7 m/s 726 mmHg 94%
11:00 +3°C° 1.8 mm 6 m/s 725 mmHg 95%
12:00 +4°C° 1.8 mm 6 m/s 725 mmHg 96%
13:00 +5°C° 1.8 mm 5 m/s 725 mmHg 97%
14:00 +6°C° 0.6 mm 5 m/s 725 mmHg 97%
15:00 +6°C° 0.6 mm 4 m/s 725 mmHg 97%
16:00 +7°C° 0.6 mm 4 m/s 725 mmHg 97%
17:00 +7°C° 0.2 mm 4 m/s 725 mmHg 97%
18:00 +7°C° 0.2 mm 4 m/s 726 mmHg 97%
19:00 +7°C° 0.2 mm 4 m/s 726 mmHg 97%
20:00 +7°C° 0.1 mm 4 m/s 726 mmHg 97%
21:00 +7°C° 0.1 mm 3 m/s 726 mmHg 97%
22:00 +7°C° 0.1 mm 3 m/s 727 mmHg 97%
23:00 +7°C° 0 mm 3 m/s 727 mmHg 96%

Demain, 25 Octobre, Dimanche

Heure Température Précipitation Vent Pression Humidité
00:00 +7°C° 0 mm 3 m/s 727 mmHg 95%
01:00 +7°C° 0 mm 2 m/s 727 mmHg 94%
02:00 +7°C° 0 mm 2 m/s 727 mmHg 93%
03:00 +7°C° 0 mm 2 m/s 727 mmHg 93%
04:00 +7°C° 0 mm 2 m/s 728 mmHg 92%
05:00 +7°C° 0 mm 2 m/s 728 mmHg 91%
06:00 +7°C° 0 mm 2 m/s 728 mmHg 90%
07:00 +6°C° 0 mm 2 m/s 728 mmHg 89%
08:00 +7°C° 0 mm 2 m/s 728 mmHg 86%
09:00 +8°C° 0 mm 2 m/s 728 mmHg 84%
10:00 +8°C° 0 mm 2 m/s 728 mmHg 81%
11:00 +10°C° 0 mm 1 m/s 727 mmHg 80%
12:00 +10°C° 0 mm 1 m/s 727 mmHg 79%
13:00 +10°C° 0 mm 1 m/s 726 mmHg 79%
14:00 +10°C° 0.5 mm 1 m/s 726 mmHg 83%
15:00 +9°C° 0.5 mm 1 m/s 725 mmHg 88%
16:00 +8°C° 0.5 mm 0 m/s 725 mmHg 93%
17:00 +9°C° 1.2 mm 1 m/s 724 mmHg 94%
18:00 +9°C° 1.2 mm 1 m/s 724 mmHg 95%
19:00 +8°C° 1.2 mm 1 m/s 723 mmHg 96%
20:00 +8°C° 0.9 mm 1 m/s 722 mmHg 97%
21:00 +7°C° 0.9 mm 0 m/s 722 mmHg 97%
22:00 +7°C° 0.9 mm 0 m/s 721 mmHg 98%
23:00 +8°C° 1.7 mm 1 m/s 721 mmHg 97%

Après-demain, 26 Octobre, Lundi

Heure Température Précipitation Vent Pression Humidité
00:00 +7°C° 1.7 mm 2 m/s 721 mmHg 97%
01:00 +7°C° 1.7 mm 3 m/s 721 mmHg 97%
02:00 +5°C° 0.5 mm 4 m/s 721 mmHg 94%
03:00 +4°C° 0.5 mm 6 m/s 722 mmHg 91%
04:00 +4°C° 0.5 mm 7 m/s 722 mmHg 89%
05:00 +3°C° 0.1 mm 7 m/s 723 mmHg 88%
06:00 +1°C° 0.1 mm 8 m/s 723 mmHg 87%
07:00 0°C° 0.1 mm 8 m/s 724 mmHg 86%
08:00 0°C° 0 mm 8 m/s 725 mmHg 82%
09:00 0°C° 0 mm 8 m/s 725 mmHg 77%
10:00 0°C° 0 mm 8 m/s 726 mmHg 73%
11:00 0°C° 0 mm 7 m/s 726 mmHg 69%
12:00 0°C° 0 mm 7 m/s 727 mmHg 66%
13:00 0°C° 0 mm 7 m/s 727 mmHg 62%
14:00 0°C° 0 mm 7 m/s 728 mmHg 65%
15:00 -1°C° 0 mm 7 m/s 728 mmHg 69%
16:00 -2°C° 0 mm 7 m/s 728 mmHg 72%
17:00 -2°C° 0 mm 6 m/s 728 mmHg 76%
18:00 -3°C° 0 mm 6 m/s 729 mmHg 80%
19:00 -3°C° 0 mm 6 m/s 729 mmHg 85%
20:00 -3°C° 0.3 mm 6 m/s 729 mmHg 85%
21:00 -4°C° 0.3 mm 7 m/s 729 mmHg 85%
22:00 -5°C° 0.3 mm 8 m/s 729 mmHg 86%
23:00 -5°C° 0.1 mm 8 m/s 729 mmHg 85%

, 27 Octobre, Mardi

Heure Température Précipitation Vent Pression Humidité
00:00 -6°C° 0.1 mm 8 m/s 730 mmHg 84%
01:00 -6°C° 0.1 mm 8 m/s 730 mmHg 83%
02:00 -6°C° 0 mm 8 m/s 730 mmHg 83%
03:00 -6°C° 0 mm 8 m/s 731 mmHg 83%
04:00 -6°C° 0 mm 8 m/s 731 mmHg 83%
05:00 -6°C° 0 mm 8 m/s 732 mmHg 83%
06:00 -6°C° 0 mm 8 m/s 732 mmHg 83%
07:00 -6°C° 0 mm 8 m/s 732 mmHg 83%
08:00 -6°C° 0 mm 8 m/s 733 mmHg 82%
09:00 -6°C° 0 mm 8 m/s 733 mmHg 80%
10:00 -5°C° 0 mm 8 m/s 733 mmHg 78%
11:00 -5°C° 0 mm 8 m/s 734 mmHg 77%
12:00 -5°C° 0 mm 8 m/s 734 mmHg 76%
13:00 -4°C° 0 mm 8 m/s 735 mmHg 75%
14:00 -4°C° 0 mm 8 m/s 735 mmHg 76%
15:00 -5°C° 0 mm 8 m/s 736 mmHg 77%
16:00 -5°C° 0 mm 8 m/s 736 mmHg 78%
17:00 -4°C° 0 mm 7 m/s 737 mmHg 79%
18:00 -4°C° 0 mm 7 m/s 737 mmHg 80%
19:00 -5°C° 0 mm 6 m/s 738 mmHg 82%
20:00 -5°C° 0 mm 6 m/s 738 mmHg 83%
21:00 -5°C° 0 mm 6 m/s 739 mmHg 83%
22:00 -5°C° 0 mm 5 m/s 739 mmHg 84%
23:00 -5°C° 0 mm 5 m/s 739 mmHg 84%

27 Octobre, Mardi

Heure Température Précipitation Vent Pression Humidité
00:00 -6°C° 0.1 mm 8 m/s 730 mmHg 84%
01:00 -6°C° 0.1 mm 8 m/s 730 mmHg 83%
02:00 -6°C° 0 mm 8 m/s 730 mmHg 83%
03:00 -6°C° 0 mm 8 m/s 731 mmHg 83%
04:00 -6°C° 0 mm 8 m/s 731 mmHg 83%
05:00 -6°C° 0 mm 8 m/s 732 mmHg 83%
06:00 -6°C° 0 mm 8 m/s 732 mmHg 83%
07:00 -6°C° 0 mm 8 m/s 732 mmHg 83%
08:00 -6°C° 0 mm 8 m/s 733 mmHg 82%
09:00 -6°C° 0 mm 8 m/s 733 mmHg 80%
10:00 -5°C° 0 mm 8 m/s 733 mmHg 78%
11:00 -5°C° 0 mm 8 m/s 734 mmHg 77%
12:00 -5°C° 0 mm 8 m/s 734 mmHg 76%
13:00 -4°C° 0 mm 8 m/s 735 mmHg 75%
14:00 -4°C° 0 mm 8 m/s 735 mmHg 76%
15:00 -5°C° 0 mm 8 m/s 736 mmHg 77%
16:00 -5°C° 0 mm 8 m/s 736 mmHg 78%
17:00 -4°C° 0 mm 7 m/s 737 mmHg 79%
18:00 -4°C° 0 mm 7 m/s 737 mmHg 80%
19:00 -5°C° 0 mm 6 m/s 738 mmHg 82%
20:00 -5°C° 0 mm 6 m/s 738 mmHg 83%
21:00 -5°C° 0 mm 6 m/s 739 mmHg 83%
22:00 -5°C° 0 mm 5 m/s 739 mmHg 84%
23:00 -5°C° 0 mm 5 m/s 739 mmHg 84%

28 Octobre, Mercredi

Heure Température Précipitation Vent Pression Humidité
00:00 -5°C° 0 mm 5 m/s 740 mmHg 85%
01:00 -5°C° 0 mm 4 m/s 740 mmHg 86%
02:00 -5°C° 0 mm 4 m/s 740 mmHg 87%
03:00 -5°C° 0 mm 4 m/s 740 mmHg 88%
04:00 -5°C° 0 mm 4 m/s 741 mmHg 89%
05:00 -5°C° 0 mm 3 m/s 741 mmHg 89%
06:00 -5°C° 0 mm 3 m/s 742 mmHg 89%
07:00 -5°C° 0 mm 3 m/s 742 mmHg 89%
08:00 -5°C° 0 mm 3 m/s 742 mmHg 84%
09:00 -4°C° 0 mm 3 m/s 743 mmHg 79%
10:00 -2°C° 0 mm 3 m/s 743 mmHg 74%
11:00 -1°C° 0 mm 3 m/s 743 mmHg 71%
12:00 -1°C° 0 mm 3 m/s 743 mmHg 67%
13:00 0°C° 0 mm 3 m/s 744 mmHg 63%
14:00 0°C° 0 mm 3 m/s 744 mmHg 66%
15:00 0°C° 0 mm 3 m/s 744 mmHg 69%
16:00 -1°C° 0 mm 2 m/s 744 mmHg 72%
17:00 -2°C° 0 mm 2 m/s 744 mmHg 75%
18:00 -2°C° 0 mm 2 m/s 744 mmHg 78%
19:00 -3°C° 0 mm 2 m/s 745 mmHg 80%
20:00 -1°C° 0 mm 1 m/s 745 mmHg 80%
21:00 -1°C° 0 mm 1 m/s 745 mmHg 80%
22:00 -1°C° 0 mm 1 m/s 745 mmHg 79%
23:00 -1°C° 0 mm 1 m/s 745 mmHg 78%

29 Octobre, Jeudi

Heure Température Précipitation Vent Pression Humidité
00:00 -2°C° 0 mm 0 m/s 745 mmHg 77%
01:00 -2°C° 0 mm 0 m/s 746 mmHg 75%
02:00 -2°C° 0 mm 0 m/s 746 mmHg 75%
03:00 -2°C° 0 mm 0 m/s 746 mmHg 74%
04:00 -2°C° 0 mm 0 m/s 746 mmHg 73%
05:00 -2°C° 0 mm 0 m/s 746 mmHg 72%
06:00 -2°C° 0 mm 0 m/s 746 mmHg 71%
07:00 -1°C° 0 mm 1 m/s 746 mmHg 70%
08:00 0°C° 0 mm 1 m/s 747 mmHg 66%
09:00 +1°C° 0 mm 1 m/s 747 mmHg 62%
10:00 +2°C° 0 mm 1 m/s 747 mmHg 59%
11:00 +3°C° 0 mm 1 m/s 747 mmHg 56%
12:00 +4°C° 0 mm 1 m/s 747 mmHg 54%
13:00 +3°C° 0 mm 2 m/s 747 mmHg 52%
14:00 +4°C° 0 mm 1 m/s 747 mmHg 56%
15:00 +3°C° 0 mm 1 m/s 747 mmHg 59%
16:00 +3°C° 0 mm 1 m/s 746 mmHg 63%
17:00 +2°C° 0 mm 1 m/s 747 mmHg 65%
18:00 +1°C° 0 mm 1 m/s 747 mmHg 67%
19:00 +1°C° 0 mm 1 m/s 747 mmHg 68%
20:00 +1°C° 0 mm 1 m/s 747 mmHg 68%
21:00 +1°C° 0 mm 1 m/s 747 mmHg 68%
22:00 0°C° 0 mm 1 m/s 747 mmHg 68%
23:00 0°C° 0 mm 1 m/s 747 mmHg 68%
Voir plus

Nous avons besoin de votre consentement

Meteoprog et ses fournisseurs de services peuvent stocker et accéder à des données personnelles telles que des cookies, des identifiants d'appareils ou d'autres technologies similaires sur votre appareil et traiter ces données pour personnaliser le contenu et les publicités, ainsi que pour fournir des fonctionnalités de médias sociaux et analyser le trafic.

  • Stocker et/ou accéder à des informations sur votre appareil

    Des cookies, des identifiants d'appareils ou d'autres informations peuvent être stockés ou accessibles sur votre appareil aux fins indiquées ci-dessus.

  • Annonces et contenus personnalisés, mesure des annonces et des contenus, connaissance de l'audience et développement de produits

    Les annonces et le contenu peuvent être personnalisés en fonction d'un profil. D'autres données peuvent être ajoutées pour mieux personnaliser les annonces et le contenu. Les performances des publicités et du contenu peuvent être mesurées. Il est possible d'obtenir des informations sur le public qui a vu les publicités et le contenu. Ces données peuvent être utilisées pour développer ou améliorer l'expérience de l'utilisateur, les systèmes et les logiciels.

En cliquant sur "J'accepte", vous autorisez l'utilisation de cookies, des identifiants d'appareils, des balises web ou d'autres technologies similaires. Vos paramètres peuvent être modifiés dans le navigateur de votre appareil.

Dans certains cas, des intérêts légitimes peuvent être invoqués plutôt qu'un consentement. Vous pouvez en savoir plus à ce sujet dans notre Politique de confidentialité et de cookies.